| time (UTC) | temp F | wind direction | speed MPH | gust MPH | rain 1hr in | rain 24hr in | rain mn in | humidity % | barometer mb |
| 20260510014510 | 40 | 331 | 2.0 | 4.0 | 0.00 | 0.19 | 0.00 | 87 | 1018.5 |
| 20260510013007 | 40 | 317 | 0.0 | 2.0 | 0.00 | 0.19 | 0.00 | 86 | 1018.6 |
| 20260510011504 | 40 | 309 | 1.0 | 4.0 | 0.00 | 0.19 | 0.00 | 85 | 1018.8 |
| 20260510010001 | 41 | 321 | 1.0 | 3.0 | 0.00 | 0.19 | 0.00 | 85 | 1018.9 |
| 20260510004559 | 42 | 301 | 1.0 | 4.0 | 0.00 | 0.19 | 0.00 | 85 | 1019.2 |
| 20260510003106 | 41 | 302 | 3.0 | 6.0 | 0.00 | 0.19 | 0.00 | 88 | 1019.3 |
| 20260510001556 | 41 | 320 | 0.0 | 0.0 | 0.00 | 0.19 | 0.00 | 88 | 1019.5 |
| 20260510000055 | 41 | 320 | 0.0 | 3.0 | 0.00 | 0.19 | 0.00 | 87 | 1019.6 |
| 20260509234601 | 41 | 320 | 0.0 | 2.0 | 0.00 | 0.19 | 0.00 | 87 | 1019.8 |
| 20260509233050 | 42 | 314 | 0.0 | 2.0 | 0.00 | 0.19 | 0.00 | 87 | 1019.9 |
| 20260509231554 | 42 | 314 | 1.0 | 7.0 | 0.00 | 0.19 | 0.00 | 87 | 1020.1 |
| 20260509230051 | 42 | 309 | 2.0 | 5.0 | 0.00 | 0.19 | 0.00 | 88 | 1020.3 |
| 20260509224554 | 41 | 323 | 2.0 | 3.0 | 0.00 | 0.19 | 0.00 | 88 | 1020.3 |
| 20260509223047 | 41 | 331 | 0.0 | 2.0 | 0.00 | 0.19 | 0.00 | 87 | 1020.4 |
| 20260509221541 | 41 | 336 | 1.0 | 4.0 | 0.00 | 0.19 | 0.00 | 86 | 1020.4 |
| 20260509220036 | 41 | 309 | 1.0 | 5.0 | 0.00 | 0.19 | 0.00 | 87 | 1020.7 |
| 20260509214539 | 41 | 327 | 0.0 | 2.0 | 0.00 | 0.19 | 0.19 | 87 | 1020.8 |
| 20260509213033 | 41 | 312 | 2.0 | 4.0 | 0.00 | 0.19 | 0.19 | 87 | 1020.9 |
| 20260509211531 | 41 | 312 | 1.0 | 3.0 | 0.00 | 0.19 | 0.19 | 87 | 1021.0 |
| 20260509210030 | 42 | 316 | 0.0 | 2.0 | 0.00 | 0.19 | 0.19 | 87 | 1021.1 |
| 20260509204530 | 42 | 316 | 0.0 | 4.0 | 0.00 | 0.19 | 0.19 | 87 | 1021.1 |
| 20260509203034 | 42 | 5 | 0.0 | 0.0 | 0.00 | 0.19 | 0.19 | 87 | 1021.2 |
| 20260509201528 | 42 | 5 | 0.0 | 0.0 | 0.00 | 0.19 | 0.19 | 87 | 1021.2 |
| 20260509200027 | 42 | 5 | 0.0 | 0.0 | 0.00 | 0.19 | 0.19 | 87 | 1021.3 |
| 20260509194528 | 42 | 25 | 0.0 | 0.0 | 0.00 | 0.19 | 0.19 | 86 | 1021.2 |
| 20260509193025 | 43 | 9 | 0.0 | 0.0 | 0.00 | 0.19 | 0.19 | 87 | 1021.3 |
| 20260509191526 | 43 | 9 | 0.0 | 0.0 | 0.00 | 0.19 | 0.19 | 87 | 1021.2 |
| 20260509190029 | 43 | 9 | 0.0 | 0.0 | 0.00 | 0.19 | 0.19 | 86 | 1021.2 |
| 20260509184539 | 43 | 36 | 0.0 | 0.0 | 0.00 | 0.19 | 0.19 | 86 | 1021.2 |
| 20260509183022 | 43 | 36 | 0.0 | 0.0 | 0.00 | 0.19 | 0.19 | 87 | 1021.3 |
| 20260509181522 | 43 | 36 | 0.0 | 2.0 | 0.00 | 0.19 | 0.19 | 86 | 1021.2 |
| 20260509180025 | 43 | 80 | 2.0 | 6.0 | 0.00 | 0.19 | 0.19 | 86 | 1021.2 |
| 20260509174527 | 43 | 82 | 0.0 | 3.0 | 0.01 | 0.19 | 0.19 | 87 | 1021.2 |
| 20260509173019 | 43 | 88 | 0.0 | 1.0 | 0.01 | 0.19 | 0.19 | 87 | 1021.5 |
| 20260509171519 | 43 | 74 | 0.0 | 0.0 | 0.01 | 0.19 | 0.19 | 87 | 1021.5 |
| 20260509170033 | 43 | 22 | 0.0 | 0.0 | 0.02 | 0.19 | 0.19 | 87 | 1021.5 |
| 20260509164518 | 43 | 32 | 1.0 | 5.0 | 0.02 | 0.18 | 0.18 | 86 | 1021.7 |
| 20260509163024 | 43 | 44 | 0.0 | 2.0 | 0.02 | 0.18 | 0.18 | 87 | 1021.9 |
| 20260509161616 | 43 | 82 | 0.0 | 4.0 | 0.02 | 0.18 | 0.18 | 87 | 1022.1 |
| 20260509160016 | 43 | 42 | 2.0 | 5.0 | 0.03 | 0.17 | 0.17 | 86 | 1022.1 |
| 20260509154517 | 43 | 27 | 0.0 | 3.0 | 0.03 | 0.17 | 0.17 | 87 | 1022.2 |
| 20260509153019 | 43 | 343 | 0.0 | 0.0 | 0.05 | 0.17 | 0.17 | 86 | 1022.2 |
| 20260509151514 | 42 | 334 | 2.0 | 5.0 | 0.05 | 0.16 | 0.16 | 85 | 1022.4 |
| 20260509150014 | 43 | 348 | 0.0 | 0.0 | 0.05 | 0.14 | 0.14 | 87 | 1022.5 |
| 20260509144517 | 43 | 342 | 0.0 | 0.0 | 0.06 | 0.13 | 0.13 | 86 | 1022.6 |
| 20260509143017 | 43 | 286 | 1.0 | 3.0 | 0.06 | 0.12 | 0.12 | 87 | 1022.5 |
| 20260509141526 | 42 | 322 | 2.0 | 10.0 | 0.06 | 0.11 | 0.11 | 86 | 1022.5 |
| 20260509140011 | 43 | 304 | 6.0 | 11.0 | 0.06 | 0.09 | 0.09 | 86 | 1022.4 |
| 20260509134523 | 43 | 319 | 4.0 | 12.0 | 0.06 | 0.08 | 0.08 | 86 | 1022.4 |
| 20260509133008 | 43 | 327 | 7.0 | 17.0 | 0.03 | 0.06 | 0.06 | 86 | 1022.5 |
| 20260509131507 | 43 | 330 | 7.0 | 13.0 | 0.03 | 0.05 | 0.05 | 86 | 1022.5 |
| 20260509130005 | 44 | 302 | 8.0 | 12.0 | 0.02 | 0.03 | 0.03 | 87 | 1022.5 |
| 20260509124503 | 44 | 282 | 4.0 | 13.0 | 0.02 | 0.02 | 0.02 | 88 | 1022.1 |
| 20260509123003 | 44 | 300 | 8.0 | 12.0 | 0.02 | 0.02 | 0.02 | 87 | 1022.0 |
| 20260509121559 | 44 | 299 | 4.0 | 13.0 | 0.02 | 0.02 | 0.02 | 88 | 1022.1 |
| 20260509120101 | 44 | 302 | 9.0 | 14.0 | 0.01 | 0.01 | 0.01 | 88 | 1022.0 |
| 20260509114557 | 44 | 321 | 9.0 | 14.0 | 0.01 | 0.01 | 0.01 | 89 | 1022.1 |
| 20260509113057 | 44 | 301 | 9.0 | 16.0 | 0.01 | 0.01 | 0.01 | 89 | 1022.1 |
| 20260509111558 | 45 | 311 | 6.0 | 14.0 | 0.00 | 0.00 | 0.00 | 88 | 1022.1 |
| 20260509110052 | 45 | 315 | 8.0 | 14.0 | 0.00 | 0.00 | 0.00 | 88 | 1022.1 |
| 20260509104606 | 45 | 326 | 11.0 | 14.0 | 0.00 | 0.00 | 0.00 | 87 | 1022.0 |
| 20260509103055 | 46 | 333 | 10.0 | 13.0 | 0.00 | 0.00 | 0.00 | 88 | 1022.0 |
| 20260509101546 | 46 | 332 | 9.0 | 13.0 | 0.00 | 0.00 | 0.00 | 88 | 1021.9 |
| 20260509100045 | 47 | 337 | 8.0 | 12.0 | 0.00 | 0.00 | 0.00 | 89 | 1021.9 |
| 20260509094543 | 47 | 338 | 7.0 | 14.0 | 0.00 | 0.00 | 0.00 | 89 | 1021.7 |
| 20260509093041 | 46 | 326 | 10.0 | 14.0 | 0.00 | 0.00 | 0.00 | 88 | 1022.0 |
| 20260509091543 | 47 | 338 | 9.0 | 13.0 | 0.00 | 0.00 | 0.00 | 87 | 1022.0 |
| 20260509090047 | 48 | 309 | 6.0 | 16.0 | 0.00 | 0.00 | 0.00 | 83 | 1022.0 |
| 20260509084536 | 49 | 218 | 10.0 | 16.0 | 0.00 | 0.00 | 0.00 | 83 | 1021.8 |
| 20260509083031 | 49 | 196 | 11.0 | 15.0 | 0.00 | 0.00 | 0.00 | 83 | 1021.8 |
| 20260509081546 | 49 | 219 | 11.0 | 14.0 | 0.00 | 0.00 | 0.00 | 83 | 1021.8 |
| 20260509080029 | 49 | 204 | 9.0 | 15.0 | 0.00 | 0.00 | 0.00 | 83 | 1021.7 |
| 20260509074529 | 49 | 207 | 11.0 | 16.0 | 0.00 | 0.00 | 0.00 | 82 | 1021.7 |
| 20260509073040 | 49 | 202 | 13.0 | 20.0 | 0.00 | 0.00 | 0.00 | 82 | 1021.7 |
| 20260509071528 | 50 | 202 | 12.0 | 16.0 | 0.00 | 0.00 | 0.00 | 81 | 1021.7 |
| 20260509070038 | 50 | 192 | 11.0 | 17.0 | 0.00 | 0.00 | 0.00 | 79 | 1021.6 |
| 20260509064524 | 50 | 190 | 11.0 | 17.0 | 0.00 | 0.00 | 0.00 | 77 | 1021.5 |
| 20260509063042 | 50 | 188 | 9.0 | 17.0 | 0.00 | 0.00 | 0.00 | 76 | 1021.4 |
| 20260509061523 | 50 | 174 | 11.0 | 18.0 | 0.00 | 0.00 | 0.00 | 75 | 1021.3 |
| 20260509060021 | 50 | 172 | 9.0 | 14.0 | 0.00 | 0.00 | 0.00 | 75 | 1021.2 |
| 20260509054517 | 50 | 161 | 9.0 | 13.0 | 0.00 | 0.00 | 0.00 | 75 | 1021.3 |
| 20260509053021 | 49 | 163 | 10.0 | 12.0 | 0.00 | 0.00 | 0.00 | 77 | 1021.2 |
| 20260509051517 | 49 | 173 | 8.0 | 12.0 | 0.00 | 0.00 | 0.00 | 77 | 1021.2 |
| 20260509050015 | 49 | 187 | 7.0 | 11.0 | 0.00 | 0.00 | 0.00 | 78 | 1021.2 |
| 20260509044514 | 49 | 145 | 7.0 | 10.0 | 0.00 | 0.00 | 0.00 | 79 | 1021.1 |
| 20260509043009 | 48 | 180 | 4.0 | 7.0 | 0.00 | 0.00 | 0.00 | 79 | 1021.1 |
| 20260509041510 | 48 | 168 | 3.0 | 8.0 | 0.00 | 0.00 | 0.00 | 79 | 1021.1 |
| 20260509040007 | 48 | 151 | 6.0 | 8.0 | 0.00 | 0.00 | 0.00 | 79 | 1021.2 |
| 20260509034506 | 48 | 176 | 4.0 | 7.0 | 0.00 | 0.00 | 0.00 | 79 | 1021.3 |
| 20260509033005 | 49 | 183 | 4.0 | 7.0 | 0.00 | 0.00 | 0.00 | 79 | 1021.3 |
| 20260509031504 | 49 | 163 | 5.0 | 7.0 | 0.00 | 0.00 | 0.00 | 78 | 1021.4 |
| 20260509030003 | 49 | 159 | 6.0 | 9.0 | 0.00 | 0.00 | 0.00 | 78 | 1021.2 |
| 20260509024505 | 49 | 157 | 4.0 | 7.0 | 0.00 | 0.00 | 0.00 | 78 | 1021.4 |
| 20260509023103 | 49 | 148 | 2.0 | 4.0 | 0.00 | 0.00 | 0.00 | 79 | 1021.5 |
| 20260509021600 | 49 | 158 | 4.0 | 6.0 | 0.00 | 0.00 | 0.00 | 78 | 1021.5 |